Location: Bannatyne
(13.0833°N, 59.5333°W)
Time: 04:36:04
(UTC+00:00)

Vanguard 3 - Pass Details

Date: 29 January 2020
Orbit: 508 x 3263 km, 33.3° (Epoch: 18 February)

Event Time Altitude Azimuth Distance (km) Brightness Sun altitude
Rises 17:04:26 0° 226° (SW) 4,863 11.6 56.3°
Reaches altitude 10° 17:07:09 10° 223° (SW) 4,176 11.5 56.0°
Maximum altitude 17:19:26 70° 141° (SE) 2,733 11.0 54.7°
Drops below altitude 10° 17:38:35 10° 62° (ENE) 6,177 11.4 52.2°
Sets 17:43:34 0° 60° (ENE) 7,226 11.6 51.5°
